Time,TemperatureF,DewpointF,PressureIn,WindDirection,WindDirectionDegrees,WindSpeedMPH,WindSpeedGustMPH,Humidity,HourlyPrecipIn,Conditions,Clouds,dailyrainin,SoftwareType,DateUTC
2013-02-12 00:00:00,25.9,20.6,29.97,West,271,8.0,15.0,80,0.00,,,0.00,Wunderground v.1.15,2013-02-12 06:00:00,
2013-02-12 00:06:00,25.9,20.6,29.98,West,270,7.0,9.0,80,0.00,,,0.00,Wunderground v.1.15,2013-02-12 06:06:00,
2013-02-12 00:12:00,25.9,21.0,29.98,West,264,6.0,19.0,80,0.00,,,0.00,weatherlink.com 1.10,2013-02-12 06:12:00,
2013-02-12 00:17:00,25.9,20.6,29.98,WSW,248,10.0,13.0,80,0.00,,,0.00,Wunderground v.1.15,2013-02-12 06:17:00,
2013-02-12 00:23:00,25.8,20.5,29.98,West,262,11.0,11.0,80,0.00,,,0.00,Wunderground v.1.15,2013-02-12 06:23:00,
2013-02-12 00:29:00,25.7,20.4,29.98,West,267,10.0,16.0,80,0.00,,,0.00,Wunderground v.1.15,2013-02-12 06:29:00,
2013-02-12 00:34:00,25.7,20.4,29.98,WSW,257,10.0,13.0,80,0.00,,,0.00,Wunderground v.1.15,2013-02-12 06:34:00,
2013-02-12 00:40:00,25.6,20.3,29.99,West,262,12.0,13.0,80,0.00,,,0.00,Wunderground v.1.15,2013-02-12 06:40:00,
2013-02-12 00:46:00,25.6,20.6,29.99,West,268,11.0,11.0,81,0.00,,,0.00,Wunderground v.1.15,2013-02-12 06:46:00,
2013-02-12 00:51:00,25.6,20.6,29.99,WSW,252,11.0,11.0,81,0.00,,,0.00,Wunderground v.1.15,2013-02-12 06:51:00,
2013-02-12 00:57:00,25.6,21.0,30.00,West,262,12.0,14.0,81,0.00,,,0.00,weatherlink.com 1.10,2013-02-12 06:57:00,
2013-02-12 01:02:00,25.5,20.5,30.00,West,271,10.0,10.0,81,0.00,,,0.00,Wunderground v.1.15,2013-02-12 07:02:00,
2013-02-12 01:08:00,25.5,20.5,30.00,West,263,7.0,10.0,81,0.00,,,0.00,Wunderground v.1.15,2013-02-12 07:08:00,
2013-02-12 01:14:00,25.5,20.2,30.00,West,274,9.0,13.0,80,0.00,,,0.00,Wunderground v.1.15,2013-02-12 07:14:00,
2013-02-12 01:19:00,25.4,20.1,30.00,West,259,8.0,13.0,80,0.00,,,0.00,Wunderground v.1.15,2013-02-12 07:19:00,
2013-02-12 01:25:00,25.3,20.0,30.00,WSW,245,13.0,16.0,80,0.00,,,0.00,Wunderground v.1.15,2013-02-12 07:25:00,
2013-02-12 01:31:00,25.2,19.9,30.00,West,264,12.0,12.0,80,0.00,,,0.00,Wunderground v.1.15,2013-02-12 07:31:00,
2013-02-12 01:36:00,25.2,19.9,30.01,WSW,256,9.0,12.0,80,0.00,,,0.00,Wunderground v.1.15,2013-02-12 07:36:00,
2013-02-12 01:42:00,25.2,20.0,30.01,West,270,6.0,15.0,80,0.00,,,0.00,weatherlink.com 1.10,2013-02-12 07:42:00,
2013-02-12 01:47:00,25.2,19.9,30.01,WSW,248,9.0,10.0,80,0.00,,,0.00,Wunderground v.1.15,2013-02-12 07:47:00,
2013-02-12 01:53:00,25.2,19.9,30.02,West,280,4.0,7.0,80,0.00,,,0.00,Wunderground v.1.15,2013-02-12 07:53:00,
2013-02-12 01:59:00,25.2,20.2,30.02,WSW,250,7.0,10.0,81,0.00,,,0.00,Wunderground v.1.15,2013-02-12 07:59:00,
2013-02-12 02:04:00,25.2,20.2,30.02,West,280,3.0,10.0,81,0.00,,,0.00,Wunderground v.1.15,2013-02-12 08:04:00,
2013-02-12 02:09:00,25.2,20.2,30.02,WSW,255,7.0,10.0,81,0.00,,,0.00,Wunderground v.1.15,2013-02-12 08:09:00,
2013-02-12 02:14:00,25.1,20.1,30.02,WNW,291,5.0,11.0,81,0.00,,,0.00,Wunderground v.1.15,2013-02-12 08:14:00,
2013-02-12 02:19:00,25.1,20.1,30.02,West,273,8.0,11.0,81,0.00,,,0.00,Wunderground v.1.15,2013-02-12 08:19:00,
2013-02-12 02:24:00,25.1,20.1,30.02,West,259,5.0,9.0,81,0.00,,,0.00,Wunderground v.1.15,2013-02-12 08:24:00,
2013-02-12 02:29:00,25.1,20.1,30.02,West,267,6.0,9.0,81,0.00,,,0.00,Wunderground v.1.15,2013-02-12 08:29:00,
2013-02-12 02:34:00,25.1,20.4,30.02,WSW,249,8.0,10.0,82,0.00,,,0.00,Wunderground v.1.15,2013-02-12 08:34:00,
2013-02-12 02:39:00,25.1,20.4,30.02,WSW,250,6.0,10.0,82,0.00,,,0.00,Wunderground v.1.15,2013-02-12 08:39:00,
2013-02-12 02:44:00,25.1,20.4,30.02,West,270,9.0,13.0,82,0.00,,,0.00,Wunderground v.1.15,2013-02-12 08:44:00,
2013-02-12 02:49:00,25.1,20.4,30.03,West,262,11.0,13.0,82,0.00,,,0.00,Wunderground v.1.15,2013-02-12 08:49:00,
2013-02-12 02:54:00,25.0,20.3,30.03,SW,232,8.0,14.0,82,0.00,,,0.00,Wunderground v.1.15,2013-02-12 08:54:00,
2013-02-12 02:59:00,25.0,20.3,30.03,West,260,10.0,14.0,82,0.00,,,0.00,Wunderground v.1.15,2013-02-12 08:59:00,
2013-02-12 03:04:00,24.9,20.2,30.03,West,259,10.0,15.0,82,0.00,,,0.00,Wunderground v.1.15,2013-02-12 09:04:00,
2013-02-12 03:09:00,24.8,20.1,30.03,WSW,244,12.0,15.0,82,0.00,,,0.00,Wunderground v.1.15,2013-02-12 09:09:00,
2013-02-12 03:14:00,24.7,20.0,30.03,WSW,257,9.0,14.0,82,0.00,,,0.00,Wunderground v.1.15,2013-02-12 09:14:00,
2013-02-12 03:19:00,24.7,20.0,30.03,WSW,245,9.0,14.0,82,0.00,,,0.00,Wunderground v.1.15,2013-02-12 09:19:00,
2013-02-12 03:24:00,24.6,19.9,30.03,WSW,243,11.0,14.0,82,0.00,,,0.00,Wunderground v.1.15,2013-02-12 09:24:00,
2013-02-12 03:29:00,24.5,19.8,30.03,WSW,246,10.0,14.0,82,0.00,,,0.00,Wunderground v.1.15,2013-02-12 09:29:00,
2013-02-12 03:34:00,24.4,19.7,30.03,WSW,249,9.0,12.0,82,0.00,,,0.00,Wunderground v.1.15,2013-02-12 09:34:00,
2013-02-12 03:39:00,24.3,19.9,30.03,WSW,256,9.0,15.0,83,0.00,,,0.00,Wunderground v.1.15,2013-02-12 09:39:00,
2013-02-12 03:44:00,24.2,19.8,30.03,West,266,5.0,11.0,83,0.00,,,0.00,Wunderground v.1.15,2013-02-12 09:44:00,
2013-02-12 03:49:00,24.0,19.6,30.04,WSW,248,8.0,11.0,83,0.00,,,0.00,Wunderground v.1.15,2013-02-12 09:49:00,
2013-02-12 03:54:00,23.8,19.4,30.04,West,263,9.0,10.0,83,0.00,,,0.00,Wunderground v.1.15,2013-02-12 09:54:00,
2013-02-12 03:59:00,23.6,19.2,30.04,WSW,245,7.0,15.0,83,0.00,,,0.00,Wunderground v.1.15,2013-02-12 09:59:00,
2013-02-12 04:04:00,23.4,19.0,30.04,West,276,9.0,13.0,83,0.00,,,0.00,Wunderground v.1.15,2013-02-12 10:04:00,
2013-02-12 04:09:00,23.2,18.8,30.04,West,266,13.0,14.0,83,0.00,,,0.00,Wunderground v.1.15,2013-02-12 10:09:00,
2013-02-12 04:14:00,23.1,18.7,30.04,SW,235,6.0,15.0,83,0.00,,,0.00,Wunderground v.1.15,2013-02-12 10:14:00,
2013-02-12 04:19:00,23.0,18.6,30.04,SW,225,7.0,15.0,83,0.00,,,0.00,Wunderground v.1.15,2013-02-12 10:19:00,
2013-02-12 04:24:00,22.9,18.5,30.05,SW,224,9.0,12.0,83,0.00,,,0.00,Wunderground v.1.15,2013-02-12 10:24:00,
2013-02-12 04:29:00,22.8,18.4,30.05,WSW,240,9.0,13.0,83,0.00,,,0.00,Wunderground v.1.15,2013-02-12 10:29:00,
2013-02-12 04:34:00,22.7,18.3,30.05,West,266,11.0,15.0,83,0.00,,,0.00,Wunderground v.1.15,2013-02-12 10:34:00,
2013-02-12 04:39:00,22.5,18.1,30.05,WSW,239,6.0,15.0,83,0.00,,,0.00,Wunderground v.1.15,2013-02-12 10:39:00,
2013-02-12 04:44:00,22.4,18.0,30.05,WSW,248,6.0,13.0,83,0.00,,,0.00,Wunderground v.1.15,2013-02-12 10:44:00,
2013-02-12 04:49:00,22.4,18.3,30.05,SW,236,7.0,13.0,84,0.00,,,0.00,Wunderground v.1.15,2013-02-12 10:49:00,
2013-02-12 04:54:00,22.3,17.9,30.05,WSW,256,9.0,14.0,83,0.00,,,0.00,Wunderground v.1.15,2013-02-12 10:54:00,
2013-02-12 04:59:00,22.2,17.8,30.05,SW,219,7.0,14.0,83,0.00,,,0.00,Wunderground v.1.15,2013-02-12 10:59:00,
2013-02-12 05:04:00,22.1,17.7,30.06,West,271,5.0,15.0,83,0.00,,,0.00,Wunderground v.1.15,2013-02-12 11:04:00,
2013-02-12 05:09:00,22.0,17.6,30.06,West,264,8.0,15.0,83,0.00,,,0.00,Wunderground v.1.15,2013-02-12 11:09:00,
2013-02-12 05:14:00,21.9,17.5,30.05,West,263,7.0,10.0,83,0.00,,,0.00,Wunderground v.1.15,2013-02-12 11:14:00,
2013-02-12 05:19:00,21.8,17.4,30.05,West,262,13.0,14.0,83,0.00,,,0.00,Wunderground v.1.15,2013-02-12 11:19:00,
2013-02-12 05:24:00,21.7,17.3,30.05,West,273,4.0,12.0,83,0.00,,,0.00,Wunderground v.1.15,2013-02-12 11:24:00,
2013-02-12 05:29:00,21.5,17.1,30.05,WSW,246,4.0,16.0,83,0.00,,,0.00,Wunderground v.1.15,2013-02-12 11:29:00,
2013-02-12 05:34:00,21.5,17.1,30.05,West,259,6.0,9.0,83,0.00,,,0.00,Wunderground v.1.15,2013-02-12 11:34:00,
2013-02-12 05:39:00,21.5,17.1,30.05,WSW,240,5.0,9.0,83,0.00,,,0.00,Wunderground v.1.15,2013-02-12 11:39:00,
2013-02-12 05:44:00,21.5,17.1,30.05,WSW,248,9.0,12.0,83,0.00,,,0.00,Wunderground v.1.15,2013-02-12 11:44:00,
2013-02-12 05:49:00,21.5,17.1,30.05,West,259,11.0,12.0,83,0.00,,,0.00,Wunderground v.1.15,2013-02-12 11:49:00,
2013-02-12 05:54:00,21.5,17.1,30.05,West,271,6.0,11.0,83,0.00,,,0.00,Wunderground v.1.15,2013-02-12 11:54:00,
2013-02-12 05:59:00,21.4,17.0,30.05,WSW,242,8.0,11.0,83,0.00,,,0.00,Wunderground v.1.15,2013-02-12 11:59:00,
2013-02-12 06:04:00,21.3,16.9,30.05,WSW,244,7.0,12.0,83,0.00,,,0.00,Wunderground v.1.15,2013-02-12 12:04:00,
2013-02-12 06:09:00,21.3,16.9,30.05,WSW,250,5.0,12.0,83,0.00,,,0.00,Wunderground v.1.15,2013-02-12 12:09:00,
2013-02-12 06:14:00,21.2,16.8,30.05,WSW,246,6.0,8.0,83,0.00,,,0.00,Wunderground v.1.15,2013-02-12 12:14:00,
2013-02-12 06:19:00,21.1,16.7,30.05,WSW,257,5.0,12.0,83,0.00,,,0.00,Wunderground v.1.15,2013-02-12 12:19:00,
2013-02-12 06:24:00,21.1,17.0,30.05,WSW,249,5.0,11.0,84,0.00,,,0.00,Wunderground v.1.15,2013-02-12 12:24:00,
2013-02-12 06:29:00,21.1,17.0,30.05,West,264,6.0,12.0,84,0.00,,,0.00,Wunderground v.1.15,2013-02-12 12:29:00,
2013-02-12 06:34:00,21.1,17.0,30.05,WSW,257,7.0,9.0,84,0.00,,,0.00,Wunderground v.1.15,2013-02-12 12:34:00,
2013-02-12 06:39:00,21.1,17.0,30.05,WSW,250,6.0,9.0,84,0.00,,,0.00,Wunderground v.1.15,2013-02-12 12:39:00,
2013-02-12 06:44:00,21.1,17.0,30.05,WSW,248,7.0,7.0,84,0.00,,,0.00,Wunderground v.1.15,2013-02-12 12:44:00,
2013-02-12 06:49:00,21.0,16.9,30.05,WSW,257,9.0,12.0,84,0.00,,,0.00,Wunderground v.1.15,2013-02-12 12:49:00,
2013-02-12 06:54:00,20.9,16.8,30.05,WSW,246,5.0,12.0,84,0.00,,,0.00,Wunderground v.1.15,2013-02-12 12:54:00,
2013-02-12 06:59:00,21.0,16.9,30.05,WSW,240,10.0,12.0,84,0.00,,,0.00,Wunderground v.1.15,2013-02-12 12:59:00,
2013-02-12 07:04:00,20.9,16.8,30.06,WSW,256,6.0,11.0,84,0.00,,,0.00,Wunderground v.1.15,2013-02-12 13:04:00,
2013-02-12 07:09:00,20.9,16.8,30.06,West,259,7.0,12.0,84,0.00,,,0.00,Wunderground v.1.15,2013-02-12 13:09:00,
2013-02-12 07:14:00,20.9,16.8,30.06,WSW,249,8.0,10.0,84,0.00,,,0.00,Wunderground v.1.15,2013-02-12 13:14:00,
2013-02-12 07:19:00,20.9,16.8,30.06,SW,236,7.0,11.0,84,0.00,,,0.00,Wunderground v.1.15,2013-02-12 13:19:00,
2013-02-12 07:24:00,20.9,16.8,30.06,West,266,5.0,10.0,84,0.00,,,0.00,Wunderground v.1.15,2013-02-12 13:24:00,
2013-02-12 07:29:00,20.8,16.7,30.06,West,266,10.0,12.0,84,0.00,,,0.00,Wunderground v.1.15,2013-02-12 13:29:00,
2013-02-12 07:34:00,20.8,16.7,30.06,WSW,248,8.0,12.0,84,0.00,,,0.00,Wunderground v.1.15,2013-02-12 13:34:00,
2013-02-12 07:39:00,20.8,16.7,30.06,WSW,252,8.0,12.0,84,0.00,,,0.00,Wunderground v.1.15,2013-02-12 13:39:00,
2013-02-12 07:44:00,20.8,16.7,30.06,SW,236,4.0,8.0,84,0.00,,,0.00,Wunderground v.1.15,2013-02-12 13:44:00,
2013-02-12 07:49:00,20.8,16.7,30.06,WSW,253,8.0,8.0,84,0.00,,,0.00,Wunderground v.1.15,2013-02-12 13:49:00,
2013-02-12 07:54:00,20.6,16.3,30.06,WSW,249,8.0,13.0,83,0.00,,,0.00,Wunderground v.1.15,2013-02-12 13:54:00,
2013-02-12 07:59:00,20.5,16.2,30.07,WSW,257,9.0,13.0,83,0.00,,,0.00,Wunderground v.1.15,2013-02-12 13:59:00,
2013-02-12 08:04:00,20.6,16.3,30.07,WSW,249,10.0,12.0,83,0.00,,,0.00,Wunderground v.1.15,2013-02-12 14:04:00,
2013-02-12 08:09:00,20.6,16.3,30.08,WSW,258,11.0,15.0,83,0.00,,,0.00,Wunderground v.1.15,2013-02-12 14:09:00,
2013-02-12 08:14:00,20.6,16.0,30.08,WSW,253,9.0,15.0,82,0.00,,,0.00,Wunderground v.1.15,2013-02-12 14:14:00,
2013-02-12 08:19:00,20.7,16.1,30.08,WSW,257,9.0,15.0,82,0.00,,,0.00,Wunderground v.1.15,2013-02-12 14:19:00,
2013-02-12 08:24:00,20.8,16.2,30.08,WSW,257,8.0,13.0,82,0.00,,,0.00,Wunderground v.1.15,2013-02-12 14:24:00,
2013-02-12 08:29:00,20.9,16.5,30.08,SW,231,8.0,13.0,83,0.00,,,0.00,Wunderground v.1.15,2013-02-12 14:29:00,
2013-02-12 08:34:00,21.0,16.4,30.09,WNW,286,8.0,13.0,82,0.00,,,0.00,Wunderground v.1.15,2013-02-12 14:34:00,
2013-02-12 08:39:00,21.1,16.5,30.09,West,266,6.0,13.0,82,0.00,,,0.00,Wunderground v.1.15,2013-02-12 14:39:00,
2013-02-12 08:44:00,21.1,16.5,30.09,West,271,7.0,12.0,82,0.00,,,0.00,Wunderground v.1.15,2013-02-12 14:44:00,
2013-02-12 08:49:00,21.1,16.5,30.08,WSW,250,8.0,13.0,82,0.00,,,0.00,Wunderground v.1.15,2013-02-12 14:49:00,
2013-02-12 08:54:00,21.1,16.2,30.08,West,264,12.0,13.0,81,0.00,,,0.00,Wunderground v.1.15,2013-02-12 14:54:00,
2013-02-12 08:59:00,21.1,16.2,30.08,West,266,9.0,14.0,81,0.00,,,0.00,Wunderground v.1.15,2013-02-12 14:59:00,
2013-02-12 09:04:00,21.1,16.2,30.08,WNW,285,7.0,14.0,81,0.00,,,0.00,Wunderground v.1.15,2013-02-12 15:04:00,
2013-02-12 09:09:00,21.1,16.2,30.08,West,266,10.0,14.0,81,0.00,,,0.00,Wunderground v.1.15,2013-02-12 15:09:00,
2013-02-12 09:14:00,21.2,16.3,30.08,SW,236,13.0,13.0,81,0.00,,,0.00,Wunderground v.1.15,2013-02-12 15:14:00,
2013-02-12 09:19:00,21.3,16.4,30.08,WNW,283,6.0,13.0,81,0.00,,,0.00,Wunderground v.1.15,2013-02-12 15:19:00,
2013-02-12 09:25:00,21.3,16.4,30.08,West,264,8.0,15.0,81,0.00,,,0.00,Wunderground v.1.15,2013-02-12 15:25:00,
2013-02-12 09:30:00,21.3,16.4,30.08,West,262,9.0,16.0,81,0.00,,,0.00,Wunderground v.1.15,2013-02-12 15:30:00,
2013-02-12 09:35:00,21.4,16.5,30.07,West,278,7.0,13.0,81,0.00,,,0.00,Wunderground v.1.15,2013-02-12 15:35:00,
2013-02-12 09:40:00,21.5,16.6,30.07,West,260,8.0,13.0,81,0.00,,,0.00,Wunderground v.1.15,2013-02-12 15:40:00,
2013-02-12 09:45:00,21.6,16.7,30.07,West,264,6.0,10.0,81,0.00,,,0.00,Wunderground v.1.15,2013-02-12 15:45:00,
2013-02-12 09:50:00,21.8,16.9,30.07,West,278,4.0,13.0,81,0.00,,,0.00,Wunderground v.1.15,2013-02-12 15:50:00,
2013-02-12 09:55:00,21.8,16.6,30.06,NW,316,7.0,11.0,80,0.00,,,0.00,Wunderground v.1.15,2013-02-12 15:55:00,
2013-02-12 10:00:00,21.9,16.7,30.06,West,262,8.0,11.0,80,0.00,,,0.00,Wunderground v.1.15,2013-02-12 16:00:00,
2013-02-12 10:05:00,22.0,16.8,30.06,WSW,250,7.0,11.0,80,0.00,,,0.00,Wunderground v.1.15,2013-02-12 16:05:00,
2013-02-12 10:10:00,22.1,16.9,30.05,West,276,6.0,11.0,80,0.00,,,0.00,Wunderground v.1.15,2013-02-12 16:10:00,
2013-02-12 10:15:00,22.2,16.7,30.06,West,266,8.0,11.0,79,0.00,,,0.00,Wunderground v.1.15,2013-02-12 16:15:00,
2013-02-12 10:20:00,22.2,17.0,30.06,WSW,256,9.0,14.0,80,0.00,,,0.00,Wunderground v.1.15,2013-02-12 16:20:00,
2013-02-12 10:25:00,22.3,16.8,30.06,West,262,3.0,12.0,79,0.00,,,0.00,Wunderground v.1.15,2013-02-12 16:25:00,
2013-02-12 10:30:00,22.3,16.8,30.07,WSW,249,6.0,12.0,79,0.00,,,0.00,Wunderground v.1.15,2013-02-12 16:30:00,
2013-02-12 10:35:00,22.3,16.8,30.07,West,276,11.0,14.0,79,0.00,,,0.00,Wunderground v.1.15,2013-02-12 16:35:00,
2013-02-12 10:40:00,22.2,16.7,30.07,WSW,239,11.0,14.0,79,0.00,,,0.00,Wunderground v.1.15,2013-02-12 16:40:00,
2013-02-12 10:45:00,22.3,16.8,30.07,West,266,7.0,16.0,79,0.00,,,0.00,Wunderground v.1.15,2013-02-12 16:45:00,
2013-02-12 10:50:00,22.5,17.0,30.07,WSW,244,5.0,16.0,79,0.00,,,0.00,Wunderground v.1.15,2013-02-12 16:50:00,
2013-02-12 10:55:00,22.7,16.9,30.07,West,272,10.0,15.0,78,0.00,,,0.00,Wunderground v.1.15,2013-02-12 16:55:00,
2013-02-12 11:00:00,22.7,17.2,30.07,West,269,9.0,16.0,79,0.00,,,0.00,Wunderground v.1.15,2013-02-12 17:00:00,
2013-02-12 11:05:00,22.7,17.2,30.07,WSW,257,6.0,12.0,79,0.00,,,0.00,Wunderground v.1.15,2013-02-12 17:05:00,
2013-02-12 11:10:00,22.8,17.0,30.07,WSW,249,6.0,12.0,78,0.00,,,0.00,Wunderground v.1.15,2013-02-12 17:10:00,
2013-02-12 11:15:00,23.0,17.5,30.07,WSW,255,6.0,11.0,79,0.00,,,0.00,Wunderground v.1.15,2013-02-12 17:15:00,
2013-02-12 11:20:00,23.3,17.5,30.07,West,262,5.0,11.0,78,0.00,,,0.00,Wunderground v.1.15,2013-02-12 17:20:00,
2013-02-12 11:25:00,23.4,17.6,30.07,SW,225,13.0,13.0,78,0.00,,,0.00,Wunderground v.1.15,2013-02-12 17:25:00,
2013-02-12 11:30:00,23.5,17.6,30.07,SW,236,12.0,14.0,78,0.00,,,0.00,Wunderground v.1.15,2013-02-12 17:30:00,
2013-02-12 11:35:00,23.5,17.3,30.07,SW,218,8.0,15.0,77,0.00,,,0.00,Wunderground v.1.15,2013-02-12 17:35:00,
2013-02-12 11:40:00,23.4,17.3,30.07,WSW,248,9.0,15.0,77,0.00,,,0.00,Wunderground v.1.15,2013-02-12 17:40:00,
2013-02-12 11:45:00,23.7,17.5,30.06,WNW,297,5.0,11.0,77,0.00,,,0.00,Wunderground v.1.15,2013-02-12 17:45:00,
2013-02-12 11:50:00,23.9,17.7,30.06,West,273,5.0,13.0,77,0.00,,,0.00,Wunderground v.1.15,2013-02-12 17:50:00,
2013-02-12 11:55:00,24.0,17.8,30.05,WSW,246,14.0,14.0,77,0.00,,,0.00,Wunderground v.1.15,2013-02-12 17:55:00,
2013-02-12 12:00:00,24.1,17.6,30.05,WSW,252,6.0,14.0,76,0.00,,,0.00,Wunderground v.1.15,2013-02-12 18:00:00,
2013-02-12 12:05:00,24.2,17.7,30.04,WSW,256,10.0,14.0,76,0.00,,,0.00,Wunderground v.1.15,2013-02-12 18:05:00,
2013-02-12 12:10:00,24.1,17.9,30.04,SW,236,10.0,14.0,77,0.00,,,0.00,Wunderground v.1.15,2013-02-12 18:10:00,
2013-02-12 12:15:00,24.3,18.1,30.04,West,262,9.0,10.0,77,0.00,,,0.00,Wunderground v.1.15,2013-02-12 18:15:00,
2013-02-12 12:20:00,24.3,17.8,30.04,WSW,254,10.0,13.0,76,0.00,,,0.00,Wunderground v.1.15,2013-02-12 18:20:00,
2013-02-12 12:25:00,24.6,18.1,30.03,WSW,242,13.0,13.0,76,0.00,,,0.00,Wunderground v.1.15,2013-02-12 18:25:00,
2013-02-12 12:30:00,24.6,17.8,30.03,West,262,8.0,16.0,75,0.00,,,0.00,Wunderground v.1.15,2013-02-12 18:30:00,
2013-02-12 12:35:00,24.7,17.9,30.02,SW,225,10.0,11.0,75,0.00,,,0.00,Wunderground v.1.15,2013-02-12 18:35:00,
2013-02-12 12:40:00,24.8,18.0,30.02,WSW,252,8.0,13.0,75,0.00,,,0.00,Wunderground v.1.15,2013-02-12 18:40:00,
2013-02-12 12:45:00,25.0,17.9,30.02,WSW,248,5.0,11.0,74,0.00,,,0.00,Wunderground v.1.15,2013-02-12 18:45:00,
2013-02-12 12:50:00,24.9,17.8,30.02,WSW,248,10.0,12.0,74,0.00,,,0.00,Wunderground v.1.15,2013-02-12 18:50:00,
2013-02-12 12:55:00,25.7,18.6,30.01,WSW,239,7.0,13.0,74,0.00,,,0.00,Wunderground v.1.15,2013-02-12 18:55:00,
2013-02-12 13:00:00,25.9,18.4,30.01,WSW,253,9.0,14.0,73,0.00,,,0.00,Wunderground v.1.15,2013-02-12 19:00:00,
2013-02-12 13:05:00,25.4,17.6,30.01,West,270,7.0,14.0,72,0.00,,,0.00,Wunderground v.1.15,2013-02-12 19:05:00,
2013-02-12 13:10:00,25.3,17.9,30.01,West,276,8.0,14.0,73,0.00,,,0.00,Wunderground v.1.15,2013-02-12 19:10:00,
2013-02-12 13:15:00,25.5,18.0,30.01,West,268,9.0,12.0,73,0.00,,,0.00,Wunderground v.1.15,2013-02-12 19:15:00,
2013-02-12 13:20:00,25.6,18.5,30.01,WNW,285,8.0,13.0,74,0.00,,,0.00,Wunderground v.1.15,2013-02-12 19:20:00,
2013-02-12 13:25:00,26.2,18.7,30.01,West,266,7.0,13.0,73,0.00,,,0.00,Wunderground v.1.15,2013-02-12 19:25:00,
2013-02-12 13:30:00,26.1,18.3,30.00,West,259,6.0,14.0,72,0.00,,,0.00,Wunderground v.1.15,2013-02-12 19:30:00,
2013-02-12 13:35:00,26.1,18.3,30.00,West,276,10.0,13.0,72,0.00,,,0.00,Wunderground v.1.15,2013-02-12 19:35:00,
2013-02-12 13:40:00,26.0,18.2,30.00,West,262,12.0,15.0,72,0.00,,,0.00,Wunderground v.1.15,2013-02-12 19:40:00,
2013-02-12 13:45:00,25.9,18.1,30.00,WSW,252,9.0,16.0,72,0.00,,,0.00,Wunderground v.1.15,2013-02-12 19:45:00,
2013-02-12 13:50:00,26.1,18.3,29.99,West,264,7.0,16.0,72,0.00,,,0.00,Wunderground v.1.15,2013-02-12 19:50:00,
2013-02-12 13:55:00,26.3,18.2,29.99,West,268,9.0,14.0,71,0.00,,,0.00,Wunderground v.1.15,2013-02-12 19:55:00,
2013-02-12 14:00:00,26.2,18.4,29.98,West,272,7.0,14.0,72,0.00,,,0.00,Wunderground v.1.15,2013-02-12 20:00:00,
2013-02-12 14:05:00,26.2,18.4,29.98,WSW,245,7.0,13.0,72,0.00,,,0.00,Wunderground v.1.15,2013-02-12 20:05:00,
2013-02-12 14:10:00,26.5,19.0,29.98,West,260,9.0,14.0,73,0.00,,,0.00,Wunderground v.1.15,2013-02-12 20:10:00,
2013-02-12 14:15:00,26.5,18.4,29.98,WSW,252,8.0,13.0,71,0.00,,,0.00,Wunderground v.1.15,2013-02-12 20:15:00,
2013-02-12 14:20:00,27.0,19.2,29.98,WSW,253,9.0,13.0,72,0.00,,,0.00,Wunderground v.1.15,2013-02-12 20:20:00,
2013-02-12 14:25:00,27.0,18.8,29.98,West,259,7.0,14.0,71,0.00,,,0.00,Wunderground v.1.15,2013-02-12 20:25:00,
2013-02-12 14:30:00,26.8,18.7,29.99,WNW,302,6.0,14.0,71,0.00,,,0.00,Wunderground v.1.15,2013-02-12 20:30:00,
2013-02-12 14:35:00,27.0,19.2,29.98,WSW,243,8.0,11.0,72,0.00,,,0.00,Wunderground v.1.15,2013-02-12 20:35:00,
2013-02-12 14:41:00,27.2,19.4,29.98,SW,225,5.0,14.0,72,0.00,,,0.00,Wunderground v.1.15,2013-02-12 20:41:00,
2013-02-12 14:45:00,27.3,19.5,29.99,WSW,253,8.0,11.0,72,0.00,,,0.00,Wunderground v.1.15,2013-02-12 20:45:00,
2013-02-12 14:50:00,27.2,19.0,29.99,WSW,250,11.0,12.0,71,0.00,,,0.00,Wunderground v.1.15,2013-02-12 20:50:00,
2013-02-12 14:55:00,27.2,19.0,29.99,West,263,6.0,13.0,71,0.00,,,0.00,Wunderground v.1.15,2013-02-12 20:55:00,
2013-02-12 15:00:00,27.1,18.9,29.99,West,271,8.0,15.0,71,0.00,,,0.00,Wunderground v.1.15,2013-02-12 21:00:00,
2013-02-12 15:05:00,27.1,18.9,29.99,WSW,252,13.0,13.0,71,0.00,,,0.00,Wunderground v.1.15,2013-02-12 21:05:00,
2013-02-12 15:10:00,26.9,19.1,29.99,West,267,7.0,14.0,72,0.00,,,0.00,Wunderground v.1.15,2013-02-12 21:10:00,
2013-02-12 15:15:00,26.9,19.1,29.99,West,267,8.0,11.0,72,0.00,,,0.00,Wunderground v.1.15,2013-02-12 21:15:00,
2013-02-12 15:20:00,26.9,19.1,29.99,West,264,8.0,13.0,72,0.00,,,0.00,Wunderground v.1.15,2013-02-12 21:20:00,
2013-02-12 15:25:00,26.9,19.1,29.98,WSW,248,8.0,12.0,72,0.00,,,0.00,Wunderground v.1.15,2013-02-12 21:25:00,
2013-02-12 15:30:00,26.9,19.4,29.99,West,264,8.0,13.0,73,0.00,,,0.00,Wunderground v.1.15,2013-02-12 21:30:00,
2013-02-12 15:35:00,26.8,19.0,29.98,West,262,10.0,14.0,72,0.00,,,0.00,Wunderground v.1.15,2013-02-12 21:35:00,
2013-02-12 15:40:00,26.8,19.3,29.98,West,260,6.0,14.0,73,0.00,,,0.00,Wunderground v.1.15,2013-02-12 21:40:00,
2013-02-12 15:46:00,26.7,19.2,29.98,West,264,8.0,13.0,73,0.00,,,0.00,Wunderground v.1.15,2013-02-12 21:46:00,
2013-02-12 15:50:00,26.6,19.1,29.99,WSW,256,8.0,13.0,73,0.00,,,0.00,Wunderground v.1.15,2013-02-12 21:50:00,
2013-02-12 15:55:00,26.7,19.2,29.99,West,260,6.0,11.0,73,0.00,,,0.00,Wunderground v.1.15,2013-02-12 21:55:00,
2013-02-12 16:00:00,26.5,19.3,29.99,WSW,256,10.0,14.0,74,0.00,,,0.00,Wunderground v.1.15,2013-02-12 22:00:00,
2013-02-12 16:05:00,26.5,19.3,29.99,West,269,7.0,14.0,74,0.00,,,0.00,Wunderground v.1.15,2013-02-12 22:05:00,
2013-02-12 16:10:00,26.4,19.2,29.99,WSW,256,10.0,14.0,74,0.00,,,0.00,Wunderground v.1.15,2013-02-12 22:10:00,
2013-02-12 16:15:00,26.5,19.3,29.99,WSW,252,8.0,14.0,74,0.00,,,0.00,Wunderground v.1.15,2013-02-12 22:15:00,
2013-02-12 16:20:00,26.4,19.2,29.99,West,271,7.0,14.0,74,0.00,,,0.00,Wunderground v.1.15,2013-02-12 22:20:00,
2013-02-12 16:26:00,26.3,19.1,29.99,WSW,246,10.0,12.0,74,0.00,,,0.00,Wunderground v.1.15,2013-02-12 22:26:00,
2013-02-12 16:31:00,26.4,19.2,29.98,WSW,249,4.0,12.0,74,0.00,,,0.00,Wunderground v.1.15,2013-02-12 22:31:00,
2013-02-12 16:36:00,26.3,19.1,29.98,SW,225,6.0,8.0,74,0.00,,,0.00,Wunderground v.1.15,2013-02-12 22:36:00,
2013-02-12 16:41:00,26.3,19.5,29.98,SW,221,2.0,8.0,75,0.00,,,0.00,Wunderground v.1.15,2013-02-12 22:41:00,
2013-02-12 16:46:00,26.4,19.2,29.98,WSW,253,5.0,8.0,74,0.00,,,0.00,Wunderground v.1.15,2013-02-12 22:46:00,
2013-02-12 16:51:00,26.2,19.0,29.97,WSW,239,4.0,9.0,74,0.00,,,0.00,Wunderground v.1.15,2013-02-12 22:51:00,
2013-02-12 16:56:00,26.0,19.2,29.97,WSW,243,4.0,8.0,75,0.00,,,0.00,Wunderground v.1.15,2013-02-12 22:56:00,
2013-02-12 17:01:00,25.9,19.1,29.97,WSW,255,6.0,9.0,75,0.00,,,0.00,Wunderground v.1.15,2013-02-12 23:01:00,
2013-02-12 17:06:00,25.6,19.1,29.97,SW,231,5.0,7.0,76,0.00,,,0.00,Wunderground v.1.15,2013-02-12 23:06:00,
2013-02-12 17:11:00,25.4,18.9,29.97,SSW,211,3.0,7.0,76,0.00,,,0.00,Wunderground v.1.15,2013-02-12 23:11:00,
2013-02-12 17:16:00,25.1,18.9,29.97,WSW,250,4.0,7.0,77,0.00,,,0.00,Wunderground v.1.15,2013-02-12 23:16:00,
2013-02-12 17:21:00,24.9,18.7,29.97,WSW,239,4.0,7.0,77,0.00,,,0.00,Wunderground v.1.15,2013-02-12 23:21:00,
2013-02-12 17:26:00,24.6,18.7,29.97,SW,232,5.0,7.0,78,0.00,,,0.00,Wunderground v.1.15,2013-02-12 23:26:00,
2013-02-12 17:31:00,24.4,18.8,29.97,WSW,243,4.0,7.0,79,0.00,,,0.00,Wunderground v.1.15,2013-02-12 23:31:00,
2013-02-12 17:36:00,24.4,18.8,29.97,WSW,248,2.0,8.0,79,0.00,,,0.00,Wunderground v.1.15,2013-02-12 23:36:00,
2013-02-12 17:41:00,24.2,18.6,29.98,South,184,3.0,8.0,79,0.00,,,0.00,Wunderground v.1.15,2013-02-12 23:41:00,
2013-02-12 17:46:00,24.1,18.8,29.98,WSW,240,4.0,6.0,80,0.00,,,0.00,Wunderground v.1.15,2013-02-12 23:46:00,
2013-02-12 17:51:00,24.1,18.8,29.97,WSW,253,3.0,6.0,80,0.00,,,0.00,Wunderground v.1.15,2013-02-12 23:51:00,
2013-02-12 17:56:00,24.0,18.7,29.97,SW,235,4.0,7.0,80,0.00,,,0.00,Wunderground v.1.15,2013-02-12 23:56:00,
2013-02-12 18:01:00,23.8,18.8,29.97,WSW,257,4.0,7.0,81,0.00,,,0.00,Wunderground v.1.15,2013-02-13 00:01:00,
2013-02-12 18:06:00,23.7,18.7,29.97,WSW,246,3.0,5.0,81,0.00,,,0.00,Wunderground v.1.15,2013-02-13 00:06:00,
2013-02-12 18:11:00,23.6,18.6,29.97,WSW,255,2.0,5.0,81,0.00,,,0.00,Wunderground v.1.15,2013-02-13 00:11:00,
2013-02-12 18:16:00,23.6,18.9,29.97,SW,232,4.0,5.0,82,0.00,,,0.00,Wunderground v.1.15,2013-02-13 00:16:00,
2013-02-12 18:21:00,23.4,18.7,29.97,WSW,238,3.0,5.0,82,0.00,,,0.00,Wunderground v.1.15,2013-02-13 00:21:00,
2013-02-12 18:26:00,23.2,18.5,29.97,SSW,212,4.0,4.0,82,0.00,,,0.00,Wunderground v.1.15,2013-02-13 00:26:00,
2013-02-12 18:31:00,23.1,18.7,29.97,SW,221,3.0,3.0,83,0.00,,,0.00,Wunderground v.1.15,2013-02-13 00:31:00,
2013-02-12 18:36:00,23.1,18.7,29.97,West,259,2.0,4.0,83,0.00,,,0.00,Wunderground v.1.15,2013-02-13 00:36:00,
2013-02-12 18:41:00,23.0,18.6,29.96,SW,235,1.0,3.0,83,0.00,,,0.00,Wunderground v.1.15,2013-02-13 00:41:00,
2013-02-12 18:46:00,22.9,18.5,29.96,SW,215,1.0,4.0,83,0.00,,,0.00,Wunderground v.1.15,2013-02-13 00:46:00,
2013-02-12 18:51:00,22.8,18.4,29.96,West,264,3.0,3.0,83,0.00,,,0.00,Wunderground v.1.15,2013-02-13 00:51:00,
2013-02-12 18:56:00,22.7,18.3,29.96,WSW,250,2.0,4.0,83,0.00,,,0.00,Wunderground v.1.15,2013-02-13 00:56:00,
2013-02-12 19:01:00,22.7,18.6,29.96,WSW,246,2.0,3.0,84,0.00,,,0.00,Wunderground v.1.15,2013-02-13 01:01:00,
2013-02-12 19:06:00,22.6,18.5,29.95,WSW,240,2.0,4.0,84,0.00,,,0.00,Wunderground v.1.15,2013-02-13 01:06:00,
2013-02-12 19:11:00,22.3,17.9,29.95,SW,236,3.0,3.0,83,0.00,,,0.00,Wunderground v.1.15,2013-02-13 01:11:00,
2013-02-12 19:16:00,22.4,18.3,29.95,WSW,255,2.0,3.0,84,0.00,,,0.00,Wunderground v.1.15,2013-02-13 01:16:00,
2013-02-12 19:21:00,22.3,18.2,29.95,WSW,253,2.0,2.0,84,0.00,,,0.00,Wunderground v.1.15,2013-02-13 01:21:00,
2013-02-12 19:26:00,22.1,18.3,29.95,WSW,245,3.0,4.0,85,0.00,,,0.00,Wunderground v.1.15,2013-02-13 01:26:00,
2013-02-12 19:31:00,22.0,18.2,29.95,WSW,239,2.0,2.0,85,0.00,,,0.00,Wunderground v.1.15,2013-02-13 01:31:00,
2013-02-12 19:36:00,21.9,18.1,29.95,WSW,253,2.0,3.0,85,0.00,,,0.00,Wunderground v.1.15,2013-02-13 01:36:00,
2013-02-12 19:41:00,21.9,18.1,29.95,WSW,253,1.0,2.0,85,0.00,,,0.00,Wunderground v.1.15,2013-02-13 01:41:00,
2013-02-12 19:46:00,21.8,18.0,29.95,WSW,250,2.0,3.0,85,0.00,,,0.00,Wunderground v.1.15,2013-02-13 01:46:00,
2013-02-12 19:51:00,21.7,18.2,29.95,WSW,253,2.0,2.0,86,0.00,,,0.00,Wunderground v.1.15,2013-02-13 01:51:00,
2013-02-12 19:56:00,21.5,18.0,29.95,West,264,1.0,3.0,86,0.00,,,0.00,Wunderground v.1.15,2013-02-13 01:56:00,
2013-02-12 20:01:00,21.6,18.3,29.95,West,264,2.0,3.0,87,0.00,,,0.00,Wunderground v.1.15,2013-02-13 02:01:00,
2013-02-12 20:06:00,21.7,18.2,29.95,West,266,1.0,3.0,86,0.00,,,0.00,Wunderground v.1.15,2013-02-13 02:06:00,
2013-02-12 20:11:00,21.7,18.2,29.95,WSW,257,1.0,2.0,86,0.00,,,0.00,Wunderground v.1.15,2013-02-13 02:11:00,
2013-02-12 20:16:00,21.6,18.1,29.95,WSW,255,1.0,2.0,86,0.00,,,0.00,Wunderground v.1.15,2013-02-13 02:16:00,
2013-02-12 20:21:00,21.4,17.9,29.95,WSW,255,1.0,1.0,86,0.00,,,0.00,Wunderground v.1.15,2013-02-13 02:21:00,
2013-02-12 20:26:00,21.3,18.0,29.95,West,260,1.0,1.0,87,0.00,,,0.00,Wunderground v.1.15,2013-02-13 02:26:00,
2013-02-12 20:31:00,21.3,18.0,29.95,West,259,1.0,1.0,87,0.00,,,0.00,Wunderground v.1.15,2013-02-13 02:31:00,
2013-02-12 20:36:00,21.1,17.8,29.95,WSW,252,1.0,1.0,87,0.00,,,0.00,Wunderground v.1.15,2013-02-13 02:36:00,
2013-02-12 20:41:00,20.5,17.0,29.95,WSW,252,3.0,3.0,86,0.00,,,0.00,Wunderground v.1.15,2013-02-13 02:41:00,
2013-02-12 20:46:00,20.2,17.0,29.94,WSW,253,1.0,3.0,87,0.00,,,0.00,Wunderground v.1.15,2013-02-13 02:46:00,
2013-02-12 20:51:00,20.0,17.0,29.94,WSW,257,1.0,1.0,88,0.00,,,0.00,Wunderground v.1.15,2013-02-13 02:51:00,
2013-02-12 20:56:00,20.0,17.0,29.94,WSW,257,1.0,1.0,88,0.00,,,0.00,Wunderground v.1.15,2013-02-13 02:56:00,
2013-02-12 21:01:00,19.9,17.2,29.94,WSW,253,1.0,1.0,89,0.00,,,0.00,Wunderground v.1.15,2013-02-13 03:01:00,
2013-02-12 21:06:00,20.0,17.3,29.94,West,260,1.0,1.0,89,0.00,,,0.00,Wunderground v.1.15,2013-02-13 03:06:00,
2013-02-12 21:11:00,20.6,18.1,29.94,West,259,2.0,2.0,90,0.00,,,0.00,Wunderground v.1.15,2013-02-13 03:11:00,
2013-02-12 21:16:00,20.8,18.1,29.93,WSW,240,1.0,2.0,89,0.00,,,0.00,Wunderground v.1.15,2013-02-13 03:16:00,
2013-02-12 21:21:00,20.8,18.1,29.93,WSW,252,2.0,2.0,89,0.00,,,0.00,Wunderground v.1.15,2013-02-13 03:21:00,
2013-02-12 21:26:00,20.8,17.8,29.93,WSW,246,1.0,2.0,88,0.00,,,0.00,Wunderground v.1.15,2013-02-13 03:26:00,
2013-02-12 21:31:00,21.0,18.3,29.93,WSW,253,2.0,2.0,89,0.00,,,0.00,Wunderground v.1.15,2013-02-13 03:31:00,
2013-02-12 21:36:00,21.2,18.5,29.93,WSW,250,0.0,3.0,89,0.00,,,0.00,Wunderground v.1.15,2013-02-13 03:36:00,
2013-02-12 21:41:00,21.3,18.6,29.93,WSW,254,3.0,3.0,89,0.00,,,0.00,Wunderground v.1.15,2013-02-13 03:41:00,
2013-02-12 21:46:00,21.6,18.9,29.92,WSW,243,3.0,4.0,89,0.00,,,0.00,Wunderground v.1.15,2013-02-13 03:46:00,
2013-02-12 21:51:00,22.4,19.9,29.92,WSW,246,3.0,5.0,90,0.00,,,0.00,Wunderground v.1.15,2013-02-13 03:51:00,
2013-02-12 21:56:00,22.9,20.1,29.92,WSW,246,4.0,6.0,89,0.00,,,0.00,Wunderground v.1.15,2013-02-13 03:56:00,
2013-02-12 22:01:00,23.5,20.7,29.92,WSW,244,4.0,4.0,89,0.00,,,0.00,Wunderground v.1.15,2013-02-13 04:01:00,
2013-02-12 22:06:00,23.9,20.9,29.92,SW,235,5.0,7.0,88,0.00,,,0.00,Wunderground v.1.15,2013-02-13 04:06:00,
2013-02-12 22:11:00,24.0,21.0,29.92,WSW,256,4.0,4.0,88,0.00,,,0.00,Wunderground v.1.15,2013-02-13 04:11:00,
2013-02-12 22:16:00,23.8,20.5,29.92,WSW,248,3.0,4.0,87,0.00,,,0.00,Wunderground v.1.15,2013-02-13 04:16:00,
2013-02-12 22:21:00,23.7,20.7,29.91,WSW,242,2.0,3.0,88,0.00,,,0.00,Wunderground v.1.15,2013-02-13 04:21:00,
2013-02-12 22:26:00,23.8,20.8,29.91,WSW,252,2.0,4.0,88,0.00,,,0.00,Wunderground v.1.15,2013-02-13 04:26:00,
2013-02-12 22:31:00,24.0,21.0,29.91,WSW,257,4.0,6.0,88,0.00,,,0.00,Wunderground v.1.15,2013-02-13 04:31:00,
2013-02-12 22:36:00,24.3,21.3,29.91,SW,219,5.0,7.0,88,0.00,,,0.00,Wunderground v.1.15,2013-02-13 04:36:00,
2013-02-12 22:41:00,24.6,21.6,29.90,WSW,253,6.0,6.0,88,0.00,,,0.00,Wunderground v.1.15,2013-02-13 04:41:00,
2013-02-12 22:46:00,24.8,21.5,29.90,SW,236,6.0,8.0,87,0.00,,,0.00,Wunderground v.1.15,2013-02-13 04:46:00,
2013-02-12 22:51:00,24.9,21.6,29.90,WSW,250,4.0,5.0,87,0.00,,,0.00,Wunderground v.1.15,2013-02-13 04:51:00,
2013-02-12 22:56:00,24.8,21.5,29.90,WSW,255,5.0,6.0,87,0.00,,,0.00,Wunderground v.1.15,2013-02-13 04:56:00,
2013-02-12 23:00:00,24.8,21.5,29.90,West,259,4.0,8.0,87,0.00,,,0.00,Wunderground v.1.15,2013-02-13 05:00:00,
2013-02-12 23:05:00,24.9,21.3,29.90,WSW,246,5.0,9.0,86,0.00,,,0.00,Wunderground v.1.15,2013-02-13 05:05:00,
2013-02-12 23:10:00,24.7,21.1,29.90,West,274,5.0,9.0,86,0.00,,,0.00,Wunderground v.1.15,2013-02-13 05:10:00,
2013-02-12 23:15:00,24.7,21.4,29.90,WSW,257,4.0,6.0,87,0.00,,,0.00,Wunderground v.1.15,2013-02-13 05:15:00,
2013-02-12 23:20:00,24.5,21.2,29.89,WSW,253,3.0,6.0,87,0.00,,,0.00,Wunderground v.1.15,2013-02-13 05:20:00,
2013-02-12 23:25:00,24.3,21.0,29.89,West,262,2.0,4.0,87,0.00,,,0.00,Wunderground v.1.15,2013-02-13 05:25:00,
2013-02-12 23:30:00,24.2,20.9,29.89,WSW,257,3.0,5.0,87,0.00,,,0.00,Wunderground v.1.15,2013-02-13 05:30:00,
2013-02-12 23:35:00,24.1,20.8,29.89,WSW,248,2.0,4.0,87,0.00,,,0.00,Wunderground v.1.15,2013-02-13 05:35:00,
2013-02-12 23:40:00,24.0,21.0,29.89,WSW,250,1.0,4.0,88,0.00,,,0.00,Wunderground v.1.15,2013-02-13 05:40:00,
2013-02-12 23:45:00,23.8,20.8,29.89,WSW,243,2.0,4.0,88,0.00,,,0.00,Wunderground v.1.15,2013-02-13 05:45:00,
2013-02-12 23:50:00,23.8,20.8,29.89,WSW,242,2.0,4.0,88,0.00,,,0.00,Wunderground v.1.15,2013-02-13 05:50:00,
2013-02-12 23:55:00,23.9,20.9,29.89,SW,236,2.0,5.0,88,0.00,,,0.00,Wunderground v.1.15,2013-02-13 05:55:00,